EST,Max TemperatureF,Mean TemperatureF,Min TemperatureF,Max Dew PointF,MeanDew PointF,Min DewpointF,Max Humidity, Mean Humidity, Min Humidity, Max Sea Level PressureIn, Mean Sea Level PressureIn, Min Sea Level PressureIn, Max VisibilityMiles, Mean VisibilityMiles, Min VisibilityMiles, Max Wind SpeedMPH, Mean Wind SpeedMPH, Max Gust SpeedMPH,PrecipitationIn, CloudCover, Events, WindDirDegrees
2013-2-1,17,14,11,12,9,6,83,75,67,30.25,30.14,29.90,10,3,0,23,14,28,0.07,8,Snow,261
2013-2-2,18,11,3,14,9,1,88,74,59,30.17,30.06,29.99,10,4,0,14,6,18,0.24,7,Fog-Snow,214
2013-2-3,20,12,3,14,10,1,87,80,73,30.04,29.95,29.85,10,4,1,22,8,29,0.04,8,Snow,251
2013-2-4,23,17,11,16,13,8,92,82,71,30.04,29.96,29.87,10,5,1,10,4,13,0.06,7,Snow,69
2013-2-5,30,16,2,25,15,0,91,84,76,30.03,29.89,29.76,9,5,1,18,10,24,0.03,7,Snow,230
2013-2-6,32,20,8,20,16,7,92,73,54,30.28,30.21,30.04,10,8,4,13,6,15,T,5,,185
2013-2-7,34,31,27,30,26,19,92,81,69,30.24,30.03,29.86,9,3,0,15,10,20,0.53,8,Fog-Rain-Snow,91
2013-2-8,34,23,12,28,22,10,92,72,51,30.39,30.09,29.85,10,6,1,20,10,24,0.15,6,Snow,6
2013-2-9,33,17,1,18,10,-1,100,77,54,30.46,30.37,30.23,10,7,1,13,5,16,0.00,2,,146
2013-2-10,42,29,15,39,25,12,92,78,64,30.21,29.92,29.58,10,8,3,23,12,29,0.14,6,Rain,120
2013-2-11,45,38,31,41,30,22,93,78,62,29.91,29.64,29.51,10,5,0,36,22,47,0.18,8,Fog-Rain-Snow,237
2013-2-12,31,29,27,23,22,21,81,75,69,30.06,30.00,29.94,10,9,6,22,13,28,T,8,Snow,255
2013-2-13,39,30,21,27,23,19,92,78,64,29.94,29.81,29.74,10,8,5,14,8,18,0.00,6,,199
2013-2-14,40,34,27,34,29,23,96,83,70,29.92,29.74,29.63,10,6,1,26,13,35,0.09,7,Rain-Snow,242
2013-2-15,29,25,21,21,16,11,84,70,55,30.17,30.06,29.89,10,9,2,16,8,21,0.01,7,Snow,300
2013-2-16,23,18,13,18,12,8,88,75,62,30.14,30.08,30.02,10,8,1,18,8,21,T,6,Snow,297
2013-2-17,23,14,4,10,6,2,88,68,47,30.25,30.19,30.14,10,10,10,12,4,14,0.00,4,,140
2013-2-18,45,32,18,40,25,10,89,72,54,30.15,29.81,29.45,10,10,5,24,15,32,0.16,7,Rain,160
2013-2-19,44,31,17,40,22,12,92,83,73,30.00,29.68,29.37,10,4,0,31,20,40,0.16,8,Rain-Snow,257
2013-2-20,23,20,16,16,12,8,77,70,62,30.32,30.19,30.02,10,8,3,20,15,32,T,8,Snow,310
2013-2-21,26,24,21,17,15,13,77,73,68,30.40,30.33,30.19,10,10,7,26,10,33,T,8,Snow,50
2013-2-22,34,28,21,31,23,15,100,86,71,30.19,29.93,29.83,10,4,0,26,14,33,0.26,8,Fog-Rain-Snow,114
2013-2-23,31,28,25,27,24,20,92,84,75,29.94,29.88,29.83,10,4,0,24,12,29,0.10,8,Fog-Snow,221
2013-2-24,37,30,22,27,23,21,88,74,59,30.17,30.01,29.88,10,7,2,14,8,17,0.01,7,Snow,248
2013-2-25,43,29,15,26,18,10,91,68,45,30.25,30.17,30.11,10,5,0,10,3,13,0.00,3,Fog,106
2013-2-26,34,31,27,31,26,21,89,76,63,30.10,29.75,29.53,10,5,0,29,19,38,0.58,7,Rain-Snow,66
2013-2-27,36,35,34,36,32,30,96,93,89,29.62,29.54,29.47,9,4,1,22,7,28,0.22,8,Snow,33
2013-2-28,38,35,31,32,29,24,89,79,69,30.02,29.78,29.60,10,8,3,15,9,20,0.02,8,Snow,346